TimeCDT,TemperatureF,Dew PointF,Humidity,Sea Level PressureIn,VisibilityMPH,Wind Direction,Wind SpeedMPH,Gust SpeedMPH,PrecipitationIn,Events,Conditions,WindDirDegrees,DateUTC
12:53 AM,39.0,27.0,62,30.35,10.0,ENE,5.8,-,N/A,,Overcast,70,2013-03-28 05:53:00
1:53 AM,37.9,28.0,68,30.35,10.0,East,5.8,-,N/A,,Overcast,100,2013-03-28 06:53:00
2:53 AM,37.0,27.0,67,30.34,10.0,ESE,3.5,-,N/A,,Overcast,110,2013-03-28 07:53:00
3:53 AM,37.0,27.0,67,30.34,10.0,East,3.5,-,N/A,,Overcast,100,2013-03-28 08:53:00
4:53 AM,36.0,27.0,70,30.35,10.0,East,3.5,-,N/A,,Overcast,100,2013-03-28 09:53:00
5:53 AM,36.0,27.0,70,30.36,10.0,East,3.5,-,N/A,,Overcast,90,2013-03-28 10:53:00
6:53 AM,37.0,25.0,62,30.37,10.0,ESE,4.6,-,N/A,,Overcast,120,2013-03-28 11:53:00
7:53 AM,37.0,25.0,62,30.37,10.0,East,6.9,-,N/A,,Mostly Cloudy,100,2013-03-28 12:53:00
8:53 AM,39.9,26.1,58,30.38,10.0,ESE,6.9,-,N/A,,Clear,120,2013-03-28 13:53:00
9:53 AM,44.1,28.0,53,30.38,10.0,SE,11.5,-,N/A,,Clear,130,2013-03-28 14:53:00
10:53 AM,46.9,30.0,52,30.38,10.0,SE,12.7,-,N/A,,Partly Cloudy,140,2013-03-28 15:53:00
11:53 AM,50.0,32.0,50,30.36,10.0,SE,12.7,-,N/A,,Partly Cloudy,130,2013-03-28 16:53:00
12:53 PM,52.0,34.0,50,30.34,10.0,SE,9.2,-,N/A,,Partly Cloudy,130,2013-03-28 17:53:00
1:53 PM,54.0,35.1,49,30.32,10.0,SSE,6.9,-,N/A,,Scattered Clouds,150,2013-03-28 18:53:00
2:53 PM,55.9,36.0,47,30.29,10.0,ESE,11.5,-,N/A,,Scattered Clouds,120,2013-03-28 19:53:00
3:53 PM,55.9,36.0,47,30.27,10.0,SE,11.5,-,N/A,,Mostly Cloudy,130,2013-03-28 20:53:00
4:53 PM,57.0,36.0,45,30.25,10.0,SE,12.7,-,N/A,,Scattered Clouds,130,2013-03-28 21:53:00
5:53 PM,55.0,35.1,47,30.25,10.0,ESE,11.5,-,N/A,,Overcast,120,2013-03-28 22:53:00
6:53 PM,53.1,35.1,50,30.25,10.0,ESE,9.2,-,N/A,,Mostly Cloudy,110,2013-03-28 23:53:00
7:53 PM,51.1,37.0,59,30.25,10.0,East,8.1,-,N/A,,Overcast,90,2013-03-29 00:53:00
8:53 PM,50.0,37.0,61,30.26,10.0,ESE,8.1,-,0.00,,Overcast,120,2013-03-29 01:53:00
9:53 PM,48.9,36.0,61,30.27,10.0,ESE,9.2,-,N/A,,Scattered Clouds,120,2013-03-29 02:53:00
10:53 PM,50.0,36.0,59,30.26,10.0,SE,9.2,-,N/A,,Overcast,130,2013-03-29 03:53:00
11:53 PM,48.9,36.0,61,30.25,10.0,SE,8.1,-,N/A,,Mostly Cloudy,130,2013-03-29 04:53:00